Le nostre stazioni meteo in Italia

Pubblicità
Il mio iltempo24.it
Milano/Malpensa, Italia (16066): Temperatura & dewpoint: 30.05.2020 19:00:00 - 05.06.2020 19:00:00 (CEST)Milano/Malpensa, Italia (16066): velocità del vento: 30.05.2020 19:00:00 - 05.06.2020 19:00:00 (CEST)Milano/Malpensa, Italia (16066): direzione del vento: 30.05.2020 19:00:00 - 05.06.2020 19:00:00 (CEST)Milano/Malpensa, Italia (16066): reduced air pressure: 30.05.2020 19:00:00 - 05.06.2020 19:00:00 (CEST)Milano/Malpensa, Italia (16066): visibility: 30.05.2020 19:00:00 - 05.06.2020 19:00:00 (CEST)Milano/Malpensa, Italia (16066): precipitazioni: 30.05.2020 19:00:00 - 05.06.2020 19:00:00 (CEST)
Data & Tempo tt [°C] td [°C] ff [km/h] ff [kn] dd ppp [hPa] vv [km] rr [mm]
05.06.2020 19:00:00 25,0 10,0 11 6 OSO - 10 -
05.06.2020 18:00:00 25,0 8,0 15 8 OSO - 10 -
05.06.2020 17:00:00 24,7 8,7 16 9 OSO 1000,0 10 0,0
05.06.2020 16:00:00 25,0 12,0 15 8 OSO - 10 -
05.06.2020 15:00:00 24,0 13,0 16 9 OSO - 10 -
05.06.2020 14:00:00 22,8 12,5 13 7 OSO 998,8 10 -
05.06.2020 13:00:00 22,0 14,0 15 8 SO - 10 -
05.06.2020 12:00:00 21,0 14,0 8 4 OSO - 10 -
05.06.2020 11:00:00 20,1 13,6 13 7 O 998,3 10 0,0
05.06.2020 10:00:00 18,0 13,0 8 4 NO - 10 -
05.06.2020 09:00:00 16,0 14,0 9 5 N - 10 -
05.06.2020 08:00:00 14,6 13,2 9 5 N 997,6 10 -
05.06.2020 07:00:00 12,0 12,0 2 1 - - 10 -
05.06.2020 06:00:00 12,0 11,0 2 1 - - 10 -
05.06.2020 05:00:00 12,1 11,6 9 5 N 996,3 10 0,0
05.06.2020 04:00:00 13,0 12,0 8 4 N - 10 -
05.06.2020 03:00:00 14,0 13,0 13 7 ONO - 10 -
05.06.2020 02:00:00 14,2 14,0 13 7 O 996,5 10 -
05.06.2020 01:00:00 14,0 14,0 8 4 NNE - 10 -
05.06.2020 00:00:00 14,0 14,0 9 5 NNE - 6 -
04.06.2020 23:00:00 15,2 14,7 8 4 E 997,6 5 0,0
04.06.2020 22:00:00 15,0 15,0 9 5 E - 3,5 -
04.06.2020 21:00:00 15,0 15,0 16 9 E - 10 -
04.06.2020 20:00:00 15,4 14,7 18 10 ESE 997,5 8 -
04.06.2020 19:00:00 16,0 15,0 16 9 ESE - 10 -
04.06.2020 18:00:00 16,0 15,0 24 13 ESE - 8 -
04.06.2020 17:00:00 15,8 15,0 21 11 SE 999,2 8 0,0
04.06.2020 16:00:00 16,0 15,0 26 14 ESE - 10 -
04.06.2020 15:00:00 16,0 15,0 21 11 ESE - 10 -
04.06.2020 14:00:00 16,5 15,3 21 11 SE 1000,4 10 -
04.06.2020 13:00:00 17,0 15,0 18 10 SE - 10 -
04.06.2020 12:00:00 16,0 14,0 18 10 SE - 10 -
04.06.2020 11:00:00 15,7 14,4 15 8 SSE 1001,2 6 0,0
04.06.2020 10:00:00 15,0 15,0 21 11 S - 6 -
04.06.2020 09:00:00 15,0 14,0 26 14 ESE - 5 -
04.06.2020 08:00:00 15,6 14,4 11 6 ESE 1001,6 5 -
04.06.2020 07:00:00 15,0 15,0 4 2 NE - 6 -
04.06.2020 06:00:00 15,0 15,0 8 4 N - 8 -
04.06.2020 05:00:00 15,1 14,7 8 4 NNE 1002,3 10 0,0
04.06.2020 04:00:00 15,0 15,0 8 4 NNE - 10 -
04.06.2020 03:00:00 16,0 15,0 8 4 N - 10 -
04.06.2020 02:00:00 15,5 14,6 11 6 NE 1004,6 10 -
04.06.2020 01:00:00 15,0 15,0 11 6 N - 8 -
04.06.2020 00:00:00 17,0 14,0 8 4 - - 10 -
03.06.2020 23:00:00 17,0 13,6 15 8 E 1006,0 10 0,0
03.06.2020 22:00:00 17,0 14,0 22 12 E - 10 -
03.06.2020 21:00:00 18,0 15,0 15 8 NNE - 10 -
03.06.2020 20:00:00 20,1 15,9 8 4 SSO 1006,1 10 -
03.06.2020 19:00:00 19,0 16,0 18 10 NNO - 10 -
03.06.2020 18:00:00 24,0 15,0 18 10 SSO - 10 -
03.06.2020 17:00:00 24,9 15,2 11 6 S 1005,3 10 0,0
03.06.2020 16:00:00 25,0 16,0 11 6 SSO - 10 -
03.06.2020 15:00:00 24,0 15,0 13 7 SO - 10 -
03.06.2020 14:00:00 24,7 14,9 11 6 S 1007,8 10 -
03.06.2020 13:00:00 23,0 14,0 13 7 SO - 10 -
03.06.2020 12:00:00 23,0 14,0 8 4 - - 10 -
03.06.2020 11:00:00 21,4 14,3 8 4 SO 1009,6 10 0,0
03.06.2020 10:00:00 21,0 14,0 5 3 O - 10 -
03.06.2020 09:00:00 20,0 14,0 2 1 - - 10 -
03.06.2020 08:00:00 17,1 14,2 5 3 N 1010,0 10 -
03.06.2020 07:00:00 13,0 12,0 8 4 N - 10 -
03.06.2020 06:00:00 12,0 11,0 8 4 NNE - 10 -
03.06.2020 05:00:00 12,2 11,8 8 4 NNE 1010,4 8 0,0
03.06.2020 04:00:00 13,0 13,0 2 1 - - 7 -
03.06.2020 03:00:00 14,0 13,0 4 2 - - 10 -
03.06.2020 02:00:00 14,7 13,6 9 5 SO 1012,0 10 -
03.06.2020 01:00:00 15,0 13,0 5 3 NNE - 10 -
03.06.2020 00:00:00 17,0 14,0 24 13 NO - 10 -
02.06.2020 23:00:00 17,3 13,3 9 5 NO 1013,0 10 0,0
02.06.2020 22:00:00 20,0 12,0 18 10 SSE - 10 -
02.06.2020 21:00:00 20,0 11,0 35 19 SE - 10 -
02.06.2020 20:00:00 25,3 12,8 18 10 SSO 1010,8 10 -
02.06.2020 19:00:00 27,0 11,0 16 9 SO - 10 -
02.06.2020 18:00:00 27,0 12,0 18 10 OSO - 10 -
02.06.2020 17:00:00 27,0 11,9 16 9 SO 1010,8 10 0,0
02.06.2020 16:00:00 27,0 13,0 15 8 OSO - 10 -
02.06.2020 15:00:00 26,0 13,0 15 8 SO - 10 -
02.06.2020 14:00:00 25,7 13,3 16 9 SO 1013,0 10 -
02.06.2020 13:00:00 25,0 13,0 15 8 SO - 10 -
02.06.2020 12:00:00 24,0 13,0 9 5 OSO - 10 -
02.06.2020 11:00:00 24,1 12,6 5 3 - 1014,8 10 0,0
02.06.2020 10:00:00 23,0 12,0 5 3 SSO - 10 -
02.06.2020 09:00:00 22,0 14,0 2 1 - - 10 -
02.06.2020 08:00:00 18,9 14,1 8 4 NNE 1015,6 10 -
02.06.2020 07:00:00 16,0 13,0 8 4 N - 10 -
02.06.2020 06:00:00 15,0 12,0 9 5 N - 10 -
02.06.2020 05:00:00 16,2 12,3 5 3 N 1016,2 10 0,0
02.06.2020 04:00:00 16,0 12,0 5 3 NNE - 10 -
02.06.2020 03:00:00 16,0 12,0 11 6 N - 10 -
02.06.2020 02:00:00 17,7 12,9 5 3 N 1016,9 10 -
02.06.2020 01:00:00 17,0 13,0 5 3 NNE - 10 -
02.06.2020 00:00:00 18,0 13,0 5 3 NNE - 10 -
01.06.2020 23:00:00 17,2 12,9 5 3 NNE 1016,7 10 0,0
01.06.2020 22:00:00 19,0 12,0 2 1 - - 10 -
01.06.2020 21:00:00 24,0 10,0 8 4 OSO - 10 -
01.06.2020 20:00:00 23,9 11,0 11 6 O 1015,9 10 -
01.06.2020 19:00:00 25,0 11,0 9 5 SO - 10 -
01.06.2020 18:00:00 25,0 12,0 9 5 S - 10 -
01.06.2020 17:00:00 24,7 11,4 13 7 - 1016,5 10 0,0
01.06.2020 16:00:00 25,0 13,0 11 6 OSO - 10 -
01.06.2020 15:00:00 24,0 12,0 13 7 OSO - 10 -
01.06.2020 14:00:00 23,6 14,1 11 6 OSO 1017,7 10 -
01.06.2020 13:00:00 23,0 12,0 5 3 - - 10 -
01.06.2020 12:00:00 22,0 13,0 8 4 - - 10 -
01.06.2020 11:00:00 21,9 13,2 5 3 - 1018,7 10 0,0
01.06.2020 10:00:00 20,0 13,0 5 3 SO - 10 -
01.06.2020 09:00:00 19,0 13,0 5 3 NNE - 10 -
01.06.2020 08:00:00 16,7 13,0 8 4 NNE 1018,8 10 -
01.06.2020 07:00:00 15,0 12,0 9 5 NNE - 10 -
01.06.2020 06:00:00 14,0 11,0 8 4 NNE - 10 -
01.06.2020 05:00:00 13,1 10,9 8 4 N 1017,9 10 0,0
01.06.2020 04:00:00 15,0 13,0 8 4 N - 10 -
01.06.2020 03:00:00 15,0 13,0 8 4 N - 10 -
01.06.2020 02:00:00 14,4 12,0 5 3 N 1017,0 10 -
01.06.2020 01:00:00 14,0 12,0 9 5 NNE - 10 -
01.06.2020 00:00:00 15,0 12,0 5 3 NNE - 10 -
31.05.2020 23:00:00 15,7 12,3 5 3 NNE 1015,7 10 0,0
31.05.2020 22:00:00 18,0 12,0 4 2 - - 10 -
31.05.2020 21:00:00 20,0 12,0 8 4 SSO - 10 -
31.05.2020 20:00:00 21,2 11,0 9 5 SO 1014,4 10 -
31.05.2020 19:00:00 22,0 11,0 11 6 OSO - 10 -
31.05.2020 18:00:00 22,0 11,0 11 6 SSO - 10 -
31.05.2020 17:00:00 21,7 10,6 13 7 OSO 1014,9 10 0,0
31.05.2020 16:00:00 21,0 11,0 11 6 SO - 10 -
31.05.2020 15:00:00 22,0 12,0 13 7 O - 10 -
31.05.2020 14:00:00 21,1 10,4 11 6 OSO 1016,2 10 -
31.05.2020 13:00:00 21,0 11,0 8 4 S - 10 -
31.05.2020 12:00:00 20,0 11,0 5 3 - - 10 -
31.05.2020 11:00:00 17,9 9,8 8 4 - 1017,7 10 0,0
31.05.2020 10:00:00 18,0 11,0 5 3 - - 10 -
31.05.2020 09:00:00 16,0 12,0 8 4 ENE - 10 -
31.05.2020 08:00:00 15,3 11,9 5 3 ENE 1017,5 10 -
31.05.2020 07:00:00 14,0 12,0 5 3 NE - 10 -
31.05.2020 06:00:00 14,0 13,0 5 3 ENE - 10 -
31.05.2020 05:00:00 14,2 12,7 4 2 NE 1016,9 10 0,0
31.05.2020 04:00:00 14,0 13,0 4 2 - - 10 -
31.05.2020 03:00:00 15,0 12,0 16 9 SE - 10 -
31.05.2020 02:00:00 15,0 13,3 11 6 SE 1017,1 10 -
31.05.2020 01:00:00 17,0 13,0 8 4 O - 10 -
31.05.2020 00:00:00 18,0 12,0 5 3 SE - 10 -
30.05.2020 23:00:00 18,8 10,9 9 5 E 1015,8 10 0,0
30.05.2020 22:00:00 19,0 11,0 11 6 N - 10 -
30.05.2020 21:00:00 20,0 11,0 15 8 NO - 10 -
30.05.2020 20:00:00 21,5 7,8 9 5 OSO 1014,3 10 -
30.05.2020 19:00:00 23,0 7,0 8 4 - - 10 -

tt = Temperatura
td = dewpoint
ff = velocità del vento
dd = direzione del vento
ppp = reduced air pressure
vv = visibility
rr = precipitazioni

Stazioni seguenti

WeatherPro
AMSI
MeteoEarth